Location: Rounton
(54.4000°N, 1.3500°W)
Time: 14:58:45
(UTC+00:00)

Transit 2A Rocket - Pass Details

Date: 30 November 2021
Orbit: 584 x 918 km, 66.7° (Epoch: 21 January)

Event Time Altitude Azimuth Distance (km) Brightness Sun altitude
Rises 14:23:18 0° 308° (NW) 3,541 8.4 7.4°
Reaches altitude 10° 14:26:06 10° 318° (NW) 2,615 7.7 7.2°
Maximum altitude 14:31:34 32° 21° (NNE) 1,526 6.1 6.7°
Drops below altitude 10° 14:36:58 10° 83° (E) 2,583 7.3 6.2°
Sets 14:39:43 0° 94° (E) 3,492 8.1 6.0°
